Woodinville, Washington, United States (98072)
Lat: 47.75N, Lon: 122.16W
Wx Zone: WAZ505
Local Info
Past Weather Observations for Yesterday

NOTE: This archive is for the closest National Weather Service station to Woodinville. Information may differ from the station used for current weather conditions.

Click here for Long-term Archive

Time Weather Temperature Dewpoint Humidity Pressure Winds Precip Visibility
23:53
Clear
61°F / 16°C 55°F / 13°C 83% 29.95 in
(1014 mb)
S 10.4 mph
(S 17 kph)
- 10SM
22:53
Clear
63°F / 17°C 55°F / 13°C 77% 29.95 in
(1014 mb)
S 10.4 mph
(S 17 kph)
- 10SM
21:53
Clear
59°F / 15°C 55°F / 13°C 88% 29.95 in
(1014 mb)
Calm - 10SM
20:53
Clear
59°F / 15°C 55°F / 13°C 88% 29.92 in
(1013 mb)
N 3.5 mph
(N 6 kph)
- 10SM
19:53
Clear
61°F / 16°C 55°F / 13°C 83% 29.92 in
(1013 mb)
N 4.6 mph
(N 7 kph)
- 10SM
18:53
Clear
61°F / 16°C 55°F / 13°C 83% 29.89 in
(1012 mb)
N 8.1 mph
(N 13 kph)
- 10SM
17:53
Clear
63°F / 17°C 55°F / 13°C 77% 29.89 in
(1012 mb)
NNE 9.2 mph
(NNE 15 kph)
- 10SM
16:53
Clear
66°F / 19°C 55°F / 13°C 68% 29.86 in
(1011 mb)
NE 6.9 mph
(NE 11 kph)
- 10SM
15:53
Clear
73°F / 23°C 57°F / 14°C 57% 29.86 in
(1011 mb)
NW 3.5 mph
(NW 6 kph)
- 10SM
14:53
Clear
79°F / 26°C 55°F / 13°C 45% 29.86 in
(1011 mb)
W 8.1 mph
(W 13 kph)
- 10SM
13:53
Clear
79°F / 26°C 55°F / 13°C 45% 29.86 in
(1011 mb)
SSW 6.9 mph
(SSW 11 kph)
- 10SM
12:53
Clear
81°F / 27°C 55°F / 13°C 42% 29.89 in
(1012 mb)
SW 4.6 mph
(SW 7 kph)
- 10SM
11:53
Clear
79°F / 26°C 54°F / 12°C 42% 29.89 in
(1012 mb)
S 6.9 mph
(S 11 kph)
- 10SM
10:53
Clear
75°F / 24°C 57°F / 14°C 54% 29.89 in
(1012 mb)
S 6.9 mph
(S 11 kph)
- 10SM
09:53
Clear
72°F / 22°C 57°F / 14°C 61% 29.89 in
(1012 mb)
S 3.5 mph
(S 6 kph)
- 10SM
08:53
Clear
66°F / 19°C 55°F / 13°C 68% 29.89 in
(1012 mb)
SSW 3.5 mph
(SSW 6 kph)
- 10SM
07:53
Clear
70°F / 21°C 52°F / 11°C 53% 29.89 in
(1012 mb)
Calm - 10SM
06:53
Clear
61°F / 16°C 54°F / 12°C 77% 29.89 in
(1012 mb)
Calm - 10SM
05:53
Clear
61°F / 16°C 50°F / 10°C 68% 29.89 in
(1012 mb)
Calm - 10SM
04:53
Clear
57°F / 14°C 52°F / 11°C 82% 29.89 in
(1012 mb)
Calm - 10SM
03:53
Clear
59°F / 15°C 54°F / 12°C 82% 29.89 in
(1012 mb)
Calm - 10SM
02:53
Clear
57°F / 14°C 54°F / 12°C 88% 29.89 in
(1012 mb)
Calm - 10SM
01:53
Clear
57°F / 14°C 54°F / 12°C 88% 29.89 in
(1012 mb)
NNE 3.5 mph
(NNE 6 kph)
- 10SM
00:53
Clear
59°F / 15°C 54°F / 12°C 82% 29.89 in
(1012 mb)
NNW 3.5 mph
(NNW 6 kph)
- 10SM
Time Weather Temperature Dewpoint Humidity Pressure Winds Precip Visibility


Weather for websites

WeatherForYou.com, LLC is not responsible for any damages or problems caused by this service. Current weather conditions are obtained from the closest station including government and personal stations which may have varying degrees of accuracy. Weather forecasts are derived from the NOAA NDFD. Like all things, this site belongs to Jesus Christ... He just trusts me to maintain it. If you have any questions or comments email webmaster@weatherforyou.com

Copyright © 2014, WeatherForYou.com LLC. All rights reserved.